Les Abymes, Guadeloupe

11:02 AM AST on November 24, 2017 (GMT -0400)
Le Raizet | | Change Station

Elev 26 ft 16.27 °N, 61.52 °W | Updated 2 minutes ago

Mostly Cloudy
Mostly Cloudy
86 °F
Feels Like 90 °F
N
12
Wind Variable Wind from ESE

Today
High -- | Low -- °F
--% Chance of Precip.
Yesterday
High -- | Low -- °F
Precip. -- in
Pressure 29.95 in
Visibility 6.2 miles
Clouds Mostly Cloudy 3300 ft
Mostly Cloudy 4300 ft
Heat Index 90 °F
Dew Point 70 °F
Humidity 58%
Rainfall 0.00 in
Snow Depth Not available.
6:14 AM 5:31 PM
Waxing Crescent, 30% visible
METAR TFFR 241500Z AUTO 12010KT 090V160 9999 BKN033 BKN043 30/21 Q1014 NOSIG
Pressure 29.95 in
Visibility 6.2 miles
Clouds Mostly Cloudy 3300 ft
Mostly Cloudy 4300 ft
Heat Index 90 °F
Dew Point 70 °F
Humidity 58%
Rainfall 0.00 in
Snow Depth Not available.
6:14 AM 5:31 PM
Waxing Crescent, 30% visible
METAR TFFR 241500Z AUTO 12010KT 090V160 9999 BKN033 BKN043 30/21 Q1014 NOSIG

Get Severe Weather Alerts

Thanks for signing up!

Be on the lookout for a verification email in your inbox.

You'll start receiving the daily forecast at 6 AM.

×

10-Day Weather Forecast

No radar image for this location.
×

Almanac

Astronomy

Nov. 24, 2017 Rise Set
Actual Time
Civil Twilight
Nautical Twilight
Astronomical Twilight
Moon
Length of Visible Light
Length of Day
Tomorrow will be .
, % of the Moon is Illuminated

Today's Extremes

Country Highs Country Lows

Community

WunderPhotos

Category 6

Welcome to Category 6. This is the collective home for Weather Underground's featured writeups by Dr. Jeff Masters (right), Bob Henson (left), Chris Burt, and other regular contributors.

Nearby

Air Quality

  Air Quality AQ Index Pollutant
Not available.

Snow Depth

Station Depth Elevation

Earthquake Activity

City Distance Mag. Time & Date
Minimum magnitude displayed is 2.5.

Coastal Water Temperatures

Place Temperature

Stations

Nearby Weather Stations

Station Location Temp. Windchill Dew Point Humidity Wind Precip. Elev Updated Type